{"data":{"norad_id":60272,"epoch":"2026-05-25T01:23:19.929984Z","epoch_age_seconds":73233,"freshness":"FRESH","line1":"1 60272U 24131T   26145.05786956 -.00001454  00000+0 -37015-4 0  9997","line2":"2 60272  53.1600  57.5151 0001016 102.8278 257.2837 15.30184711103418","mean_motion":15.30184711,"eccentricity":0.0001016,"inclination_deg":53.16,"raan_deg":57.5151,"arg_perigee_deg":102.8278,"mean_anomaly_deg":257.2837,"bstar":-3.7015e-5,"rev_number":10341,"period_min":94.106285969812,"perigee_km":474.56441478921,"apogee_km":475.95702520591,"semimajor_km":6853.3977199976,"source":"CELESTRAK","updated_at":"2026-05-25T13:38:19.201988Z"}}